timestamp,surface_pressure_avg,surface_temp_avg,battery_voltage,lat,long
2020-04-19 00:09:01+00:00,264.6214,2.5,13.13,47.84626,-54.09684
2020-04-19 00:19:01+00:00,264.0797,2.4,12.81,47.84626,-54.09684
2020-04-19 00:29:01+00:00,252.9014,2.45,12.81,47.84626,-54.09684
2020-04-19 00:39:01+00:00,242.1081,2.49,12.81,47.84626,-54.09684
2020-04-19 00:49:01+00:00,242.0647,2.4,12.81,47.84626,-54.09684
2020-04-19 00:59:01+00:00,238.2698,2.4,12.81,47.84626,-54.09684
2020-04-19 01:09:01+00:00,227.2765,2.4,12.81,47.84626,-54.09684
2020-04-19 01:19:01+00:00,225.0431,2.4,12.65,47.84626,-54.09684
2020-04-19 01:29:01+00:00,227.2948,2.4,12.65,47.84626,-54.09684
2020-04-19 01:39:01+00:00,223.0898,2.39,12.65,47.84626,-54.09684
2020-04-19 01:49:01+00:00,216.3831,2.38,12.65,47.84626,-54.09684
2020-04-19 01:59:01+00:00,217.0948,2.38,12.65,47.84626,-54.09684
2020-04-19 02:09:01+00:00,218.4614,2.35,12.65,47.84626,-54.09684
2020-04-19 02:19:01+00:00,214.5531,2.3,12.65,47.84626,-54.09684
2020-04-19 02:29:01+00:00,211.9915,2.32,12.65,47.84626,-54.09684
2020-04-19 02:39:01+00:00,212.0998,2.38,12.65,47.84626,-54.09684
2020-04-19 02:49:01+00:00,211.4581,2.4,12.65,47.84626,-54.09684
2020-04-19 02:59:01+00:00,208.4681,2.4,12.65,47.84626,-54.09684
2020-04-19 03:09:01+00:00,207.3948,2.42,12.65,47.84626,-54.09684
2020-04-19 03:19:01+00:00,205.5631,2.47,12.57,47.84626,-54.09684
2020-04-19 03:29:01+00:00,202.5915,2.5,12.57,47.84626,-54.09684
2020-04-19 03:39:01+00:00,201.3481,2.5,12.57,47.84626,-54.09684
2020-04-19 03:49:01+00:00,202.8015,2.5,12.57,47.84626,-54.09684
2020-04-19 03:59:01+00:00,204.0548,2.54,12.57,47.84626,-54.09684
2020-04-19 04:09:01+00:00,204.7831,2.58,12.57,47.84626,-54.09684
2020-04-19 04:19:01+00:00,205.0448,2.55,12.57,47.84626,-54.09684
2020-04-19 04:29:01+00:00,209.3065,2.52,12.57,47.84626,-54.09684
2020-04-19 04:39:01+00:00,213.3998,2.52,12.57,47.84626,-54.09684
2020-04-19 04:49:01+00:00,213.6748,2.55,12.57,47.84626,-54.09684
2020-04-19 04:59:01+00:00,213.8297,2.58,12.57,47.84626,-54.09684
2020-04-19 05:09:01+00:00,219.2664,2.5,12.57,47.84626,-54.09684
2020-04-19 05:19:01+00:00,224.9831,2.5,12.57,47.84626,-54.09684
2020-04-19 05:29:01+00:00,227.2314,2.5,12.57,47.84626,-54.09684
2020-04-19 05:39:01+00:00,229.2198,2.4,12.57,47.84626,-54.09684
2020-04-19 05:49:01+00:00,232.4448,2.4,12.57,47.84626,-54.09684
2020-04-19 05:59:01+00:00,238.8547,2.38,12.57,47.84626,-54.09684
2020-04-19 06:09:01+00:00,241.8398,2.3,12.57,47.84626,-54.09684
2020-04-19 06:19:01+00:00,245.4348,2.3,12.57,47.84626,-54.09684
2020-04-19 06:29:01+00:00,251.7598,2.2,12.57,47.84626,-54.09684
2020-04-19 06:39:01+00:00,258.6497,2.1,12.57,47.84626,-54.09684
2020-04-19 06:49:01+00:00,257.3814,2.07,12.57,47.84626,-54.09684
2020-04-19 06:59:01+00:00,260.9031,2.1,12.57,47.84626,-54.09684
2020-04-19 07:09:01+00:00,271.158,2.09,12.57,47.84626,-54.09684
2020-04-19 07:19:01+00:00,280.4347,2.05,12.57,47.84626,-54.09684
2020-04-19 07:29:01+00:00,285.1664,2.07,12.57,47.84626,-54.09684
2020-04-19 07:39:01+00:00,292.2347,2.1,12.57,47.84626,-54.09684
2020-04-19 07:49:01+00:00,298.3646,2.1,12.57,47.84626,-54.09684
2020-04-19 07:59:01+00:00,305.083,2.1,12.57,47.84626,-54.09684
2020-04-19 08:09:01+00:00,310.5496,2.15,12.57,47.84626,-54.09684
2020-04-19 08:19:01+00:00,315.2713,2.17,12.49,47.84626,-54.09684
2020-04-19 08:29:01+00:00,321.7346,2.19,12.49,47.84626,-54.09684
2020-04-19 08:39:01+00:00,328.0396,2.19,12.49,47.84626,-54.09684
2020-04-19 08:49:01+00:00,334.2114,2.2,12.49,47.84626,-54.09684
2020-04-19 08:59:01+00:00,337.5629,2.2,12.49,47.84626,-54.09684
2020-04-19 09:09:01+00:00,336.9579,2.2,12.49,47.84626,-54.09684
2020-04-19 09:19:01+00:00,336.8163,2.19,12.49,47.84626,-54.09684
2020-04-19 09:29:01+00:00,340.5797,2.1,12.49,47.84626,-54.09684
2020-04-19 09:39:01+00:00,343.5596,2.1,12.49,47.84626,-54.09684
2020-04-19 09:49:01+00:00,343.3113,2.1,12.49,47.84626,-54.09684
2020-04-19 09:59:01+00:00,342.358,2.1,12.49,47.84626,-54.09684
2020-04-19 10:09:01+00:00,338.9696,2.1,12.49,47.84626,-54.09684
2020-04-19 10:19:01+00:00,335.0363,2.1,12.57,47.84626,-54.09684
2020-04-19 10:29:01+00:00,335.1346,2.1,12.57,47.84626,-54.09684
2020-04-19 10:39:01+00:00,332.1747,2.1,12.57,47.84626,-54.09684
2020-04-19 10:49:01+00:00,331.6813,2.04,12.57,47.84626,-54.09684
2020-04-19 10:59:01+00:00,332.9946,2.0,12.57,47.84626,-54.09684
2020-04-19 11:09:01+00:00,333.8613,2.01,12.57,47.84626,-54.09684
2020-04-19 11:19:01+00:00,330.158,2.07,12.65,47.84626,-54.09684
2020-04-19 11:29:01+00:00,322.7047,2.1,12.65,47.84626,-54.09684
2020-04-19 11:39:01+00:00,318.0863,2.19,12.65,47.84626,-54.09684
2020-04-19 11:49:01+00:00,317.1847,2.2,12.65,47.84626,-54.09684
2020-04-19 11:59:01+00:00,311.428,2.2,12.65,47.84626,-54.09684
2020-04-19 12:09:01+00:00,309.0031,2.2,12.65,47.84626,-54.09684
2020-04-19 12:19:01+00:00,308.9181,2.2,12.65,47.84626,-54.09684
2020-04-19 12:29:01+00:00,306.633,2.22,12.65,47.84626,-54.09684
2020-04-19 12:39:01+00:00,289.5647,2.3,12.65,47.84626,-54.09684
2020-04-19 12:49:01+00:00,282.0231,2.3,12.65,47.84626,-54.09684
2020-04-19 12:59:01+00:00,286.8364,2.3,12.65,47.84626,-54.09684
2020-04-19 13:09:01+00:00,283.6547,2.3,12.65,47.84626,-54.09684
2020-04-19 13:19:01+00:00,269.4181,2.3,12.81,47.84626,-54.09684
2020-04-19 13:29:01+00:00,263.043,2.36,12.81,47.84626,-54.09684
2020-04-19 13:39:01+00:00,263.3047,2.4,12.81,47.84626,-54.09684
2020-04-19 13:49:01+00:00,255.6981,2.42,12.81,47.84626,-54.09684
2020-04-19 13:59:01+00:00,248.248,2.5,12.81,47.84626,-54.09684
2020-04-19 14:09:01+00:00,251.2131,2.5,12.81,47.84626,-54.09684
2020-04-19 14:19:01+00:00,254.0497,2.5,12.73,47.84626,-54.09684
2020-04-19 14:29:01+00:00,246.9781,2.54,12.73,47.84626,-54.09684
2020-04-19 14:39:01+00:00,241.6747,2.65,12.73,47.84626,-54.09684
2020-04-19 14:49:01+00:00,242.2781,2.68,12.73,47.84626,-54.09684
2020-04-19 14:59:01+00:00,236.7997,2.6,12.73,47.84626,-54.09684
2020-04-19 15:09:01+00:00,233.3297,2.6,12.73,47.84626,-54.09684
2020-04-19 15:19:01+00:00,233.188,2.6,12.73,47.84626,-54.09684
2020-04-19 15:29:01+00:00,230.1331,2.6,12.73,47.84626,-54.09684
2020-04-19 15:39:01+00:00,223.0631,2.6,12.73,47.84626,-54.09684
2020-04-19 15:49:01+00:00,227.2181,2.6,12.73,47.84626,-54.09684
2020-04-19 15:59:01+00:00,235.0881,2.6,12.73,47.84626,-54.09684
2020-04-19 16:09:01+00:00,236.3698,2.6,12.73,47.84626,-54.09684
2020-04-19 16:19:01+00:00,234.3264,2.64,12.73,47.84626,-54.09684
2020-04-19 16:29:01+00:00,233.1331,2.64,12.73,47.84626,-54.09684
2020-04-19 16:39:01+00:00,234.8864,2.6,12.73,47.84626,-54.09684
2020-04-19 16:49:01+00:00,235.4631,2.6,12.73,47.84626,-54.09684
2020-04-19 16:59:01+00:00,235.1548,2.6,12.73,47.84626,-54.09684
2020-04-19 17:09:01+00:00,239.7514,2.6,12.73,47.84626,-54.09684
2020-04-19 17:19:01+00:00,246.8264,2.58,12.89,47.84626,-54.09684
2020-04-19 17:29:01+00:00,251.9881,2.4,12.89,47.84626,-54.09684
2020-04-19 17:39:01+00:00,251.6747,2.3,12.89,47.84626,-54.09684
2020-04-19 17:49:01+00:00,259.0964,2.5,12.89,47.84626,-54.09684
2020-04-19 17:59:01+00:00,264.5414,2.35,12.89,47.84626,-54.09684
2020-04-19 18:09:01+00:00,265.4631,2.55,12.89,47.84626,-54.09684
2020-04-19 18:19:01+00:00,263.6514,2.51,12.97,47.84626,-54.09684
2020-04-19 18:29:01+00:00,277.4897,2.44,12.97,47.84626,-54.09684
2020-04-19 18:39:01+00:00,287.613,2.6,12.97,47.84626,-54.09684
2020-04-19 18:49:01+00:00,288.2047,2.4,12.97,47.84626,-54.09684
2020-04-19 18:59:01+00:00,281.5098,2.3,12.97,47.84626,-54.09684
2020-04-19 19:09:01+00:00,292.3381,2.3,12.97,47.84626,-54.09684
2020-04-19 19:19:01+00:00,307.348,2.34,12.89,47.84626,-54.09684
2020-04-19 19:29:01+00:00,302.663,2.39,12.89,47.84626,-54.09684
2020-04-19 19:39:01+00:00,298.6447,2.35,12.89,47.84626,-54.09684
2020-04-19 19:49:01+00:00,314.798,2.3,12.89,47.84626,-54.09684
2020-04-19 19:59:01+00:00,325.5463,2.3,12.89,47.84626,-54.09684
2020-04-19 20:09:01+00:00,322.9146,2.2,12.89,47.84626,-54.09684
2020-04-19 20:19:01+00:00,327.2147,2.2,12.65,47.84626,-54.09684
2020-04-19 20:29:01+00:00,340.1546,2.2,12.65,47.84626,-54.09684
2020-04-19 20:39:01+00:00,343.668,2.2,12.65,47.84626,-54.09684
2020-04-19 20:49:01+00:00,341.9380000000001,2.2,12.65,47.84626,-54.09684
2020-04-19 20:59:01+00:00,349.5513,2.29,12.65,47.84626,-54.09684
2020-04-19 21:09:01+00:00,354.043,2.3,12.65,47.84626,-54.09684
2020-04-19 21:19:01+00:00,355.6395,2.29,12.57,47.84626,-54.09684
2020-04-19 21:29:01+00:00,356.298,2.29,12.57,47.84626,-54.09684
2020-04-19 21:39:01+00:00,352.5397,2.28,12.57,47.84626,-54.09684
2020-04-19 21:49:01+00:00,350.8446,2.28,12.57,47.84626,-54.09684
2020-04-19 21:59:01+00:00,352.24300000000005,2.3,12.57,47.84626,-54.09684
2020-04-19 22:09:01+00:00,352.0712,2.3,12.57,47.84626,-54.09684
2020-04-19 22:19:01+00:00,344.9646,2.3,12.57,47.84626,-54.09684
2020-04-19 22:29:01+00:00,341.1846,2.3,12.57,47.84626,-54.09684
2020-04-19 22:39:01+00:00,345.7662,2.3,12.57,47.84626,-54.09684
2020-04-19 22:49:01+00:00,341.1163,2.3,12.57,47.84626,-54.09684
2020-04-19 22:59:01+00:00,333.5012,2.3,12.57,47.84626,-54.09684
2020-04-19 23:09:01+00:00,337.978,2.3,12.57,47.84626,-54.09684
2020-04-19 23:19:01+00:00,341.1397,2.29,12.49,47.84626,-54.09684
2020-04-19 23:29:01+00:00,324.6647,2.26,12.49,47.84626,-54.09684
2020-04-19 23:39:01+00:00,321.9797,2.2,12.49,47.84626,-54.09684
2020-04-19 23:49:01+00:00,329.858,2.2,12.49,47.84626,-54.09684
2020-04-19 23:59:01+00:00,324.8397,2.2,12.49,47.84626,-54.09684
